Location: Gunong Jayong
(2.7167°N, 113.7167°E)
Time: 15:04:42
(UTC+00:00)

Daily predictions for brighter satellites

Satellite Brightness Start Highest point End
(mag) Time Altitude Azimuth Time Altitude Azimuth Time Altitude Azimuth
Cosmos 540 Rocket 3.6 12:03:44 10° N 12:08:39 50° ENE 12:08:58 49° E
Aurora 2 Rocket 3.9 12:04:07 10° SW 12:08:30 29° S 12:08:30 29° S
Palapa B4 Rocket 3.2 12:05:06 10° WSW 12:09:39 62° NNW 12:10:31 47° NNE
Cosmos 1553 Rocket 4.2 12:03:44 10° NNE 12:09:49 49° E 12:11:06 43° ESE
Cosmos 1470 Rocket 3.5 12:05:41 10° N 12:09:57 79° W 12:11:15 44° S
ADEOS 3.9 12:10:15 21° S 12:13:43 63° WSW 12:18:51 10° NNW
Cosmos 2278 4.4 12:18:27 10° N 12:22:44 37° NE 12:22:44 37° NE
CZ-4B R/B 3.6 12:25:32 45° NE 12:25:32 45° NE 12:29:45 10° N
USA 234 3.2 12:18:14 10° NE 12:24:45 89° NW 12:31:18 10° SW
Okean O Rocket 4.0 12:28:45 13° NNE 12:28:45 13° NNE 12:29:20 10° NNE
Cosmos 1470 4.1 12:24:31 10° N 12:26:36 32° N 12:26:36 32° N
Cosmos 468 Rocket 3.9 12:24:08 10° N 12:28:52 74° NNE 12:28:52 74° NNE
Cosmos 1356 Rocket 4.2 12:30:35 46° NNW 12:30:35 46° NNW 12:33:36 10° N
Cosmos 2228 Rocket 4.2 12:32:23 36° N 12:32:23 36° N 12:35:07 10° N
Cosmos 1933 Rocket 4.4 12:29:28 10° N 12:32:31 44° N 12:32:31 44° N
Cosmos 1655 Rocket 3.9 12:33:22 62° SSE 12:34:31 80° E 12:40:54 10° N
Tiangong 1.0 12:33:08 10° NNW 12:33:32 13° NNW 12:33:32 13° NNW
CZ-4 R/B 2.7 12:39:10 38° WNW 12:39:10 38° WNW 12:42:02 10° NNW
SPOT 1/Viking Rocket 4.0 12:39:20 50° SW 12:40:02 55° WSW 12:45:01 10° NNW
IUS-1 SRM-2 3.9 12:33:41 10° NW 12:40:32 34° N 12:40:32 34° N
BREEZE-M R/B 3.6 12:30:07 10° SW 12:43:28 77° SE 12:43:33 77° ESE
FALCON 9 R/B 3.1 12:42:42 10° NW 12:47:46 77° NE 12:49:38 60° ESE
ARIANE 5 R/B 4.2 12:57:30 10° W 13:00:48 24° W 13:00:48 24° W
SL-16 R/B 3.5 13:02:38 10° NNW 13:05:44 34° NNW 13:05:44 34° NNW
Resurs 01 Rocket 4.1 13:13:45 18° NW 13:13:45 18° NW 13:15:00 10° NNW
COSMOS 2455 4.5 13:12:45 10° SW 13:17:54 30° WNW 13:23:03 10° N
Ariane H10+ 4.1 13:51:31 10° W 14:26:08 - E 13:56:16 52° W
Atlas Centaur 2 4.3 13:52:43 10° NW 13:56:44 32° NNW 13:56:44 32° NNW
ATLAS 3B R/B 4.1 19:15:03 30° NNE 19:15:03 30° NNE 19:18:21 10° NNE
H-2A R/B 4.4 19:27:31 10° ENE 19:30:06 17° E 19:30:06 17° E
SL-16 R/B 3.9 19:38:08 30° N 19:38:08 30° N 19:41:06 10° N
CZ-3 R/B 4.4 18:42:28 10° WNW 19:38:54 56° SW 19:52:35 10° SE
USA 229 DEB 4.2 19:46:24 45° E 19:46:24 45° E 19:51:04 10° NE
USA 229 4.2 19:46:30 45° E 19:46:30 45° E 19:51:10 10° NE
Ariane H10 3.7 19:52:12 53° SE 19:52:12 53° SE 19:55:28 10° E
Hubble Space Telescope 3.6 19:59:36 12° NNE 19:59:36 12° NNE 20:00:04 10° NNE
Cosmos 1725 Rocket 4.3 20:06:19 54° NNW 20:06:19 54° NNW 20:11:09 10° N
Cosmos 2016 Rocket 4.4 20:13:22 50° NW 20:13:22 50° NW 20:18:11 10° N
Meteor 2-21 4.3 20:13:19 10° N 20:18:59 69° WNW 20:18:59 69° WNW
Cosmos 2369 Rocket 2.0 20:20:24 81° NW 20:20:24 81° NW 20:25:47 10° NNE
Ariane H10 4.0 20:22:50 16° ENE 20:22:50 16° ENE 20:23:39 10° ENE
Cosmos 1939 Rocket 4.1 20:20:03 10° NNE 20:23:34 36° E 20:23:34 36° E
Meteor 1-26 Rocket 4.2 20:19:39 10° NNW 20:24:11 60° NW 20:24:11 60° NW
Cosmos 1371 Rocket 4.3 20:26:30 52° NW 20:26:30 52° NW 20:30:49 10° N
Cosmos 2233 Rocket 3.8 20:25:47 62° SW 20:26:45 75° W 20:33:02 10° N
Lacrosse 4 Rocket 3.7 20:35:19 12° SSE 20:37:41 18° ESE 20:40:27 10° ENE
DMSP B5D2-2 4.2 20:33:56 10° SSE 20:39:12 76° ENE 20:44:27 10° N
Cosmos 1484 Rocket 3.1 20:35:35 10° N 20:38:29 53° N 20:38:29 53° N
H-2A R/B 4.2 20:38:06 10° NE 20:40:56 28° E 20:42:01 23° SE
Cosmos 2221 3.0 20:42:01 10° NNW 20:45:04 42° NW 20:45:04 42° NW
Meteor 1-20 Rocket 4.2 20:44:49 40° SSW 20:46:50 64° W 20:52:36 10° N
ATLAS 2A CENTAUR R/B 2.4 20:49:54 31° ENE 20:49:54 31° ENE 20:51:44 10° ESE
ARGOS 3.7 20:44:44 10° NNE 20:50:03 59° ESE 20:55:22 10° S
Palapa 6 Rocket 3.9 20:49:34 37° W 20:51:42 58° NNW 20:56:44 10° NE
Cosmos 1833 Rocket 3.8 20:47:46 10° NW 20:50:40 26° WNW 20:50:40 26° WNW
H-2A R/B 1.8 20:57:33 43° WSW 20:59:04 84° NNW 21:06:24 10° NE
SL-08 RB Rocket 4.4 20:58:31 10° NNE 21:02:55 53° ESE 21:07:23 10° S
ARIANE 5 R/B 3.2 20:58:44 10° NNE 21:03:38 54° ESE 21:08:36 10° S
ATLAS CENTAUR R/B 3.7 21:01:28 10° N 21:05:05 28° ENE 21:08:47 10° SE
H-2A R/B 3.0 21:05:46 10° NNW 21:09:52 26° WNW 21:10:39 25° W
Cosmos 1023 Rocket 4.3 21:05:43 10° NNW 21:10:46 87° W 21:15:53 10° SSE
Cosmos 1452 Rocket 3.4 21:14:23 12° SSW 21:19:14 74° WNW 21:24:26 10° N
USA 59 Rocket 1.0 21:17:22 10° SSW 21:23:30 57° ESE 21:27:48 10° NE
COSMOS 2406 3.6 21:18:26 10° N 21:24:02 69° ENE 21:29:40 10° SSE
Lacrosse 5 rocket 3.9 21:23:53 10° SE 21:25:25 12° ESE 21:26:57 10° E
Delta 7925 Rocket 4.4 21:23:01 15° SSW 21:26:35 36° SSE 21:31:42 10° E
FengYun 1-2 T 4.3 21:22:06 10° N 21:27:38 61° WNW 21:33:12 10° SSW
Centaur AC-72 3.4 21:12:12 10° WNW 21:28:18 77° SSW 21:34:15 10° ESE
Cosmos 1140 Rocket 3.5 21:23:26 10° NNW 21:28:25 57° WSW 21:33:27 10° S
Cosmos 1766 Rocket 4.3 21:28:30 10° S 21:32:50 56° E 21:37:10 10° NNE
Cosmos 1110 Rocket 4.3 21:28:42 10° SSW 21:33:46 49° WNW 21:38:52 10° N
Okean 1 3.0 21:31:29 10° N 21:35:14 76° W 21:39:00 10° S
NOSS 2-1 (E) 4.0 21:29:42 10° SSW 21:35:56 80° ESE 21:40:14 10° NNE
BLOCK DM-SL R/B 3.2 21:33:15 14° W 21:36:30 69° S 21:44:48 10° E
Aureole 3 Rocket 4.4 21:34:09 10° SSE 21:36:50 29° E 21:39:44 10° NNE
ARIANE 5 R/B 3.3 21:27:12 13° WSW 21:36:53 38° SSW 21:40:58 10° SE
Cosmos 2034 Rocket 4.2 21:30:45 10° S 21:36:53 75° E 21:43:03 10° N
SEDSat Delta rocket 3.1 21:35:55 10° NW 21:39:55 68° NE 21:44:01 10° ESE
Meteor 1-27 Rocket 3.9 21:34:04 10° N 21:39:58 85° E 21:45:47 10° S
Cosmos 407 Rocket 3.4 21:34:57 10° NNW 21:40:05 74° WSW 21:45:17 10° S
Kakehashi 4.4 21:35:29 13° WSW 21:40:55 87° SSE 21:55:32 10° ENE
NOAA 12 4.3 21:37:33 10° N 21:42:43 54° WNW 21:47:54 10° SSW
ARIANE 5 R/B 2.0 21:45:07 12° WSW 21:46:55 53° S 21:51:32 10° E
OAO 3 Rocket 3.5 21:42:47 10° SW 21:47:39 65° SE 21:52:29 10° ENE
BlueWalker 3 3.4 21:47:06 10° W 21:49:33 17° SW 21:52:01 10° SSW
NOSS 2-1 (D) 4.0 21:43:47 10° SSW 21:49:57 65° WNW 21:54:14 10° NNE
Ariane H10-3 2.1 21:48:13 10° W 21:51:22 61° S 21:59:44 10° E
PSLV R/B 4.4 21:49:04 10° NNE 21:53:13 53° ESE 21:57:22 10° S
Cosmos 2082 Rocket 2.8 21:56:22 10° NW 22:01:18 33° WSW 22:06:15 10° SSW
Ariane H10+ 3.4 22:07:15 10° W 22:20:34 74° S 22:23:49 10° E
